Weather History for Mount Sterling, KY

Change the Weather History Date:

Thursday, March 6, 2014

  Actual Average Record
Temperature  
Mean Temperature 34 °F -  
Max Temperature 42 °F 54 °F 42 °F (2014)
Min Temperature 26 °F 31 °F 26 °F (2014)
Degree Days  
Heating Degree Days 31    
Moisture  
Dew Point 23 °F    
Average Humidity 67    
Maximum Humidity 87    
Minimum Humidity 56    
Precipitation  
Precipitation 0.00 in - - ()
Sea Level Pressure  
Sea Level Pressure 30.18 in    
Wind  
Wind Speed 7 mph (ENE)    
Max Wind Speed 13 mph    
Max Gust Speed -    
Visibility 10 miles    
Events      
Averages and records for this station are not official NWS values.
T = Trace of Precipitation, MM = Missing Value Source: NWS Daily Summary

Daily Weather History Graph

Daily Weather History Graph

Search for Another Location

Airport:

Trip Planner

Search our weather history database for the weather conditions in past years. The results will help you decide how hot, cold, wet, or windy it might be!

Date:

Astronomy

Mar. 06, 2014 Rise Set
Actual Time 7:00 AM EST 6:34 PM EST
Civil Twilight 6:34 AM EST 7:00 PM EST
Nautical Twilight 6:03 AM EST 7:31 PM EST
Astronomical Twilight 5:33 AM EST 8:01 PM EST
Moon 10:12 AM EST (3/6) No Moon Set
Length of Visible Light 12h 26m
Length of Day
11h 33m
Waxing Crescent, 32% of the Moon is Illuminated
Mar 6
Waxing Crescent
Mar 8
First Quarter
Mar 16
Full
Mar 23
Last Quarter
Mar 30
New

Hourly Weather History & Observations

Time (EST) Temp. Windchill Dew Point Humidity Pressure Visibility Wind Dir Wind Speed Gust Speed Precip Events Conditions
12:15 AM 28.4 °F 22.2 °F 19.4 °F 69% 30.26 in 10.0 mi ENE 5.8 mph - N/A   Clear
12:35 AM 28.4 °F 22.2 °F 19.4 °F 69% 30.25 in 10.0 mi ENE 5.8 mph - N/A   Clear
12:55 AM 28.4 °F 21.2 °F 19.4 °F 69% 30.25 in 10.0 mi ENE 6.9 mph - N/A   Clear
1:15 AM 28.4 °F 21.2 °F 19.4 °F 69% 30.25 in 10.0 mi ENE 6.9 mph - N/A   Clear
1:35 AM 28.4 °F 21.2 °F 19.4 °F 69% 30.25 in 10.0 mi NE 6.9 mph - N/A   Clear
1:50 AM 28.4 °F 21.2 °F 19.4 °F 69% 30.25 in 10.0 mi NE 6.9 mph - N/A   Clear
2:15 AM 28.4 °F 20.4 °F 19.4 °F 69% 30.25 in 10.0 mi NE 8.1 mph - N/A   Clear
2:35 AM 26.6 °F 18.2 °F 17.6 °F 69% 30.24 in 10.0 mi ENE 8.1 mph - N/A   Clear
2:55 AM 26.6 °F 20.0 °F 19.4 °F 74% 30.24 in 10.0 mi ENE 5.8 mph - N/A   Clear
3:15 AM 26.6 °F 18.2 °F 19.4 °F 74% 30.23 in 10.0 mi ENE 8.1 mph - N/A   Clear
3:35 AM 26.6 °F 19.1 °F 17.6 °F 69% 30.23 in 10.0 mi ENE 6.9 mph - N/A   Clear
3:55 AM 26.6 °F 20.0 °F 19.4 °F 74% 30.23 in 10.0 mi ENE 5.8 mph - N/A   Clear
4:15 AM 26.6 °F 20.0 °F 17.6 °F 69% 30.23 in 10.0 mi ENE 5.8 mph - N/A   Clear
4:35 AM 26.6 °F 18.2 °F 17.6 °F 69% 30.22 in 10.0 mi ENE 8.1 mph - N/A   Clear
4:55 AM 26.6 °F 17.5 °F 17.6 °F 69% 30.22 in 10.0 mi ENE 9.2 mph - N/A   Clear
5:15 AM 26.6 °F 16.8 °F 17.6 °F 69% 30.22 in 10.0 mi ENE 10.4 mph - N/A   Clear
5:35 AM 26.6 °F 17.5 °F 17.6 °F 69% 30.22 in 10.0 mi ENE 9.2 mph - N/A   Clear
5:55 AM 26.6 °F 17.5 °F 17.6 °F 69% 30.23 in 10.0 mi East 9.2 mph - N/A   Clear
6:15 AM 26.6 °F 17.5 °F 17.6 °F 69% 30.23 in 10.0 mi East 9.2 mph - N/A   Clear
6:35 AM 26.6 °F 16.8 °F 17.6 °F 69% 30.23 in 10.0 mi East 10.4 mph - N/A   Clear
6:55 AM 26.6 °F 17.5 °F 17.6 °F 69% 30.23 in 10.0 mi East 9.2 mph - N/A   Clear
7:15 AM 26.6 °F 17.5 °F 17.6 °F 69% 30.23 in 10.0 mi East 9.2 mph - N/A   Clear
7:35 AM 26.6 °F 18.2 °F 19.4 °F 74% 30.25 in 10.0 mi East 8.1 mph - N/A   Clear
7:55 AM 26.6 °F 16.2 °F 17.6 °F 69% 30.23 in 10.0 mi East 11.5 mph - N/A   Clear
8:15 AM 26.6 °F 16.8 °F 19.4 °F 74% 30.25 in 10.0 mi East 10.4 mph - N/A   Clear
8:30 AM 28.4 °F 19.1 °F 19.4 °F 69% 30.25 in 10.0 mi East 10.4 mph - N/A   Clear
8:55 AM 28.4 °F 18.0 °F 19.4 °F 69% 30.25 in 10.0 mi East 12.7 mph - N/A   Clear
9:15 AM 30.2 °F 20.8 °F 19.4 °F 64% 30.25 in 10.0 mi East 11.5 mph - N/A   Clear
9:35 AM 30.2 °F 20.8 °F 19.4 °F 64% 30.25 in 10.0 mi ESE 11.5 mph - N/A   Clear
9:55 AM 32.0 °F 25.6 °F 19.4 °F 60% 30.25 in 10.0 mi East 6.9 mph - N/A   Clear
10:15 AM 32.0 °F 24.2 °F 21.2 °F 64% 30.25 in 10.0 mi East 9.2 mph - N/A   Clear
10:35 AM 32.0 °F 24.2 °F 21.2 °F 64% 30.24 in 10.0 mi ENE 9.2 mph - N/A   Clear
10:55 AM 32.0 °F 24.2 °F 21.2 °F 64% 30.24 in 10.0 mi East 9.2 mph - N/A   Clear
11:15 AM 33.8 °F 27.0 °F 23.0 °F 65% 30.23 in 10.0 mi East 8.1 mph - N/A   Clear
11:35 AM 33.8 °F 29.6 °F 23.0 °F 65% 30.23 in 10.0 mi East 4.6 mph - N/A   Clear
11:55 AM 35.6 °F 29.9 °F 23.0 °F 60% 30.22 in 10.0 mi ESE 6.9 mph - N/A   Clear
12:15 PM 37.4 °F 31.4 °F 23.0 °F 56% 30.20 in 10.0 mi ESE 8.1 mph - N/A   Clear
12:35 PM 37.4 °F 34.9 °F 24.8 °F 60% 30.20 in 10.0 mi ENE 3.5 mph - N/A   Clear
12:55 PM 37.4 °F 32.8 °F 26.6 °F 65% 30.19 in 10.0 mi East 5.8 mph - N/A   Clear
1:15 PM 37.4 °F 33.8 °F 24.8 °F 60% 30.18 in 10.0 mi ENE 4.6 mph - N/A   Clear
1:35 PM 39.2 °F 35.9 °F 26.6 °F 61% 30.17 in 10.0 mi East 4.6 mph - N/A   Clear
1:55 PM 39.2 °F 35.0 °F 26.6 °F 61% 30.16 in 10.0 mi ENE 5.8 mph - N/A   Clear
2:15 PM 41.0 °F 37.1 °F 26.6 °F 57% 30.15 in 10.0 mi NE 5.8 mph - N/A   Clear
2:35 PM 41.0 °F 35.8 °F 28.4 °F 61% 30.14 in 10.0 mi NE 8.1 mph - N/A   Clear
2:55 PM 41.0 °F 37.1 °F 28.4 °F 61% 30.14 in 10.0 mi NE 5.8 mph - N/A   Clear
3:15 PM 41.0 °F 38.0 °F 26.6 °F 57% 30.13 in 10.0 mi ENE 4.6 mph - N/A   Clear
3:35 PM 42.8 °F 38.6 °F 28.4 °F 57% 30.13 in 10.0 mi ENE 6.9 mph - N/A   Clear
3:55 PM 42.8 °F 37.5 °F 28.4 °F 57% 30.13 in 10.0 mi East 9.2 mph - N/A   Clear
4:15 PM 42.8 °F 40.1 °F 28.4 °F 57% 30.12 in 10.0 mi ENE 4.6 mph - N/A   Clear
4:35 PM 42.8 °F 38.6 °F 28.4 °F 57% 30.13 in 10.0 mi ENE 6.9 mph - N/A   Clear
4:55 PM 42.8 °F 38.6 °F 28.4 °F 57% 30.12 in 10.0 mi ENE 6.9 mph - N/A   Clear
5:15 PM 42.8 °F 39.3 °F 28.4 °F 57% 30.12 in 10.0 mi ENE 5.8 mph - N/A   Clear
5:35 PM 42.8 °F 40.1 °F 28.4 °F 57% 30.11 in 10.0 mi East 4.6 mph - N/A   Clear
5:55 PM 41.0 °F 38.0 °F 28.4 °F 61% 30.11 in 10.0 mi ENE 4.6 mph - N/A   Clear
6:15 PM 41.0 °F 37.1 °F 28.4 °F 61% 30.11 in 10.0 mi ENE 5.8 mph - N/A   Clear
6:35 PM 41.0 °F 36.4 °F 28.4 °F 61% 30.11 in 10.0 mi ENE 6.9 mph - N/A   Clear
6:55 PM 41.0 °F 36.4 °F 28.4 °F 61% 30.11 in 10.0 mi ENE 6.9 mph - N/A   Clear
7:15 PM 41.0 °F 36.4 °F 28.4 °F 61% 30.10 in 10.0 mi ENE 6.9 mph - N/A   Clear
7:35 PM 39.2 °F 33.6 °F 28.4 °F 65% 30.10 in 10.0 mi East 8.1 mph - N/A   Clear
7:55 PM 39.2 °F 34.2 °F 28.4 °F 65% 30.10 in 10.0 mi ENE 6.9 mph - N/A   Clear
8:15 PM 37.4 °F 33.8 °F 28.4 °F 70% 30.11 in 10.0 mi NE 4.6 mph - N/A   Clear
8:35 PM 37.4 °F 32.8 °F 28.4 °F 70% 30.10 in 10.0 mi East 5.8 mph - N/A   Clear
8:55 PM 35.6 °F 31.7 °F 28.4 °F 75% 30.11 in 10.0 mi NE 4.6 mph - N/A   Clear
9:15 PM 37.4 °F 32.8 °F 28.4 °F 70% 30.11 in 10.0 mi ENE 5.8 mph - N/A   Clear
9:35 PM 37.4 °F 33.8 °F 26.6 °F 65% 30.11 in 10.0 mi ENE 4.6 mph - N/A   Clear
9:55 PM 33.8 °F 29.6 °F 28.4 °F 81% 30.10 in 10.0 mi ENE 4.6 mph - N/A   Clear
10:15 PM 33.8 °F 28.6 °F 28.4 °F 81% 30.09 in 10.0 mi ENE 5.8 mph - N/A   Clear
10:35 PM 35.6 °F 29.9 °F 26.6 °F 70% 30.09 in 10.0 mi East 6.9 mph - N/A   Clear
10:55 PM 32.0 °F 25.6 °F 28.4 °F 87% 30.08 in 10.0 mi ENE 6.9 mph - N/A   Clear
11:15 PM 32.0 °F 26.4 °F 26.6 °F 80% 30.08 in 10.0 mi East 5.8 mph - N/A   Clear
11:35 PM 33.8 °F 28.6 °F 26.6 °F 75% 30.08 in 10.0 mi East 5.8 mph - N/A   Clear
11:55 PM 33.8 °F 29.6 °F 26.6 °F 75% 30.07 in 10.0 mi East 4.6 mph - N/A   Clear